Location: Messina
(38.1830°N, 15.5670°E)
Time: 09:34:42
(UTC+02:00)

ISS - Visible Passes

Search period start: 08 May 2021 00:00
Search period end: 18 May 2021 00:00
Orbit: 418 x 421 km, 51.6° (Epoch: 08 May)

Date Brightness Start Highest point End Pass type
(mag) Time Alt. Az. Time Alt. Az. Time Alt. Az.
08 May -0.6 02:49:24 11° NNW 02:49:27 11° NNW 02:50:32 10° N visible
09 May -0.2 02:03:26 11° NNE 02:03:26 11° NNE 02:03:36 10° NNE visible
09 May -0.8 05:15:39 10° NNW 05:17:48 16° NNE 05:19:56 10° ENE visible
10 May -0.6 04:28:39 10° N 04:30:07 12° NNE 04:31:36 10° NE visible
11 May -0.2 03:42:01 10° N 03:42:24 10° NNE 03:42:48 10° NNE visible
11 May -1.6 05:17:02 10° NNW 05:20:05 30° NNE 05:23:07 10° E visible
12 May -1.0 04:29:51 10° NNW 04:32:30 21° NNE 04:35:10 10° ENE visible
13 May -0.6 03:42:43 10° NNW 03:44:53 16° NNE 03:47:02 10° ENE visible
14 May -0.4 02:55:42 10° N 02:57:12 12° NNE 02:58:41 10° NE visible
14 May -2.7 04:31:22 10° NW 04:34:40 48° NE 04:37:56 10° ESE visible
14 May -3.3 21:13:33 10° SSW 21:16:41 38° SE 21:19:50 10° ENE visible
14 May -1.4 22:50:43 10° W 22:53:34 25° NNW 22:55:41 14° NNE visible
15 May -0.1 02:09:04 10° N 02:09:28 10° NNE 02:09:53 10° NNE visible
15 May -1.8 03:44:06 10° NNW 03:47:08 30° NNE 03:50:11 10° E visible
15 May -2.2 22:02:52 10° WSW 22:06:01 37° NNW 22:09:12 10° NE visible
15 May -0.2 23:42:33 10° NNW 23:43:36 11° NNW 23:44:38 10° N visible
16 May -1.1 02:56:54 10° NNW 02:59:34 21° NNE 03:02:14 10° E visible
16 May -3.6 04:33:16 10° WNW 04:36:34 51° SW 04:39:50 10° SSE visible
16 May -3.3 21:15:12 10° WSW 21:18:32 63° NW 21:21:53 10° NE visible
16 May -0.4 22:54:04 10° NW 22:55:53 14° NNW 22:57:42 10° NNE visible
17 May -0.7 02:09:47 10° NNW 02:11:56 16° NNE 02:14:05 10° ENE visible
17 May -3.8 03:45:47 10° NW 03:49:10 86° NE 03:52:33 10° SE visible
17 May -3.8 20:27:46 10° SW 20:31:06 72° SE 20:34:27 10° NE visible
17 May -0.7 22:05:50 10° WNW 22:08:14 18° NNW 22:10:38 10° NNE visible
